Location: Agadir Inflass
(31.2321°N, 8.7859°W)
Time: 22:33:04
(UTC+00:00)

Daily predictions for brighter satellites

Satellite Brightness Start Highest point End
(mag) Time Altitude Azimuth Time Altitude Azimuth Time Altitude Azimuth
Cosmos 1553 Rocket 4.4 20:01:44 10° SSW 20:08:04 73° W 20:14:29 10° N
CSL-04 Debris 4.2 20:09:14 10° SSE 20:14:34 71° ENE 20:19:57 10° N
Lacrosse 5 rocket 2.4 20:18:52 10° NNW 20:22:22 31° NE 20:25:52 11° ESE
deb Chang Zheng 4 3.5 20:22:01 10° SSE 20:26:13 87° W 20:30:25 10° NNW
S3M 4.1 20:20:39 10° S 20:26:51 84° W 20:33:00 10° N
Resurs 1-3 3.9 20:23:38 10° SSE 20:27:50 49° ENE 20:32:04 10° N
USA 186 1.9 20:25:46 10° S 20:28:37 64° W 20:31:38 10° NNW
ATLAS 2AS CENTAUR R/B 3.7 20:24:34 10° N 20:30:39 31° NE 20:35:55 12° ESE
Skynet4D Del rocket 4.2 20:27:10 10° W 20:32:23 44° SSW 20:37:19 14° SE
TSX-5 4.1 20:29:15 10° S 20:33:07 58° ESE 20:38:04 10° NNE
Meteor 2-12 Rocket 4.5 20:28:54 10° N 20:34:58 64° E 20:41:01 10° SSE
CSL-04 Rocket 3.9 20:30:39 10° S 20:36:10 81° WSW 20:41:44 10° NNW
PSLV R/B 4.3 20:32:37 10° NNE 20:36:38 45° E 20:40:38 10° S
Longmarch 3A Rocket 2.1 20:35:09 10° WSW 20:37:01 30° S 20:39:26 16° ESE
NOSS 3-4 (A) 4.4 20:29:43 10° NW 20:37:04 64° WSW 20:45:13 10° SSE
NOSS 3-4 (C) 4.4 20:29:49 10° NW 20:37:10 65° WSW 20:45:17 10° SSE
Cosmos 1025 Rocket 2.9 20:35:55 10° S 20:40:10 77° E 20:44:27 10° N
CZ-4 R/B 4.2 20:45:42 10° SW 20:48:10 15° W 20:50:37 10° WNW
Cosmos 1452 Rocket 3.5 20:48:35 10° S 20:53:43 58° ESE 20:58:52 10° NNE
Cosmos 1833 Rocket 3.0 20:48:36 10° S 20:53:49 42° ESE 20:59:03 10° NE
Delta 2 Rocket 3.8 20:53:27 10° W 20:56:43 43° N 20:59:54 10° ENE
Cosmos 1110 Rocket 4.5 20:55:37 13° SSE 20:59:46 38° E 21:04:38 10° NE
Cosmos 1300 4.5 20:56:50 10° NNW 21:00:11 31° W 21:03:32 10° SSW
Landsat 7 3.8 20:56:11 12° S 21:00:28 83° WSW 21:05:12 10° NNW
BREEZE-M DEB (TANK) 2.1 20:59:37 10° NW 21:01:50 77° NE 21:03:20 29° SE
Resurs 01 Rocket 1.7 21:01:17 23° SSE 21:03:56 60° ENE 21:08:19 10° N
Meteor 2-5 Rocket 4.4 21:00:56 10° SSW 21:06:18 54° W 21:11:44 10° N
CZ-4B R/B 0.8 21:03:40 10° NNE 21:06:33 80° ESE 21:07:53 28° S
Atlas Centaur 2 3.3 21:02:03 10° W 21:06:43 24° SSW 21:09:00 18° S
Cosmos 1455 Rocket 3.2 21:04:23 10° N 21:08:41 73° W 21:12:00 17° S
MOS 1 4.3 21:05:20 19° SSE 21:09:31 75° ENE 21:15:13 10° N
Lacrosse 5 2.1 21:14:56 10° NNW 21:19:59 60° NE 21:22:04 33° ESE
ASTRO E2 3.0 21:17:01 10° SW 21:20:37 41° SSE 21:20:37 41° SSE
H-2A R/B 3.4 21:11:49 10° SW 21:21:52 24° S 21:22:38 24° SSE
H-2A R/B 4.4 21:19:09 10° SSW 21:22:13 23° W 21:25:18 10° NW
IRAS Rocket 4.1 21:18:45 10° NNE 21:24:21 85° ESE 21:29:45 11° SSW
Cosmos 2082 Rocket 2.9 21:27:22 31° ESE 21:27:40 31° ESE 21:32:36 10° NE
Cosmos 1271 Rocket 2.6 21:23:54 10° N 21:27:51 85° E 21:28:52 49° SSE
Yuri Rocket 3.3 21:24:20 10° W 21:28:17 44° S 21:28:48 42° SSE
Cosmos 1536 Rocket 3.4 21:28:20 30° S 21:30:26 90° ESE 21:34:48 10° N
USA 245 4.1 21:30:03 38° E 21:30:28 39° ENE 21:34:01 10° N
NOSS 2-1 (C) 4.5 21:26:54 10° NNW 21:32:14 72° ENE 21:35:31 34° SE
CARTOSAT-1 3.6 21:33:49 50° SE 21:34:38 61° ENE 21:38:53 10° N
H-2A R/B 4.2 21:32:03 10° NNW 21:35:52 28° WNW 21:39:41 10° SW
Cosmos 1455 2.3 21:33:05 10° N 21:36:54 72° W 21:37:44 50° SSW
Meteor 1-21 Rocket 4.3 21:36:53 40° SSE 21:38:37 56° E 21:44:07 10° NNE
Tiangong 1.6 21:39:10 10° WNW 21:41:48 57° NW 21:41:48 57° NW
NOSS 2-1 (D) 4.4 21:37:17 10° NNW 21:42:43 86° ENE 21:45:43 38° SSE
USA 267 3.5 21:36:43 10° ENE 21:42:52 42° SE 21:45:16 31° S
SL-24 R/B 4.2 21:43:38 48° S 21:44:46 76° WSW 21:49:24 10° NNW
SPOT 3 Rocket 3.5 21:46:11 50° SE 21:47:29 72° ENE 21:52:40 10° N
Ariane Rocket 3.2 21:46:35 36° S 21:48:37 66° WSW 21:53:41 10° NNW
Cosmos 1741 Rocket 4.2 21:44:19 10° N 21:49:30 52° ENE 21:50:18 48° ESE
GOES 2 Rocket 3.4 21:48:04 10° WSW 21:52:45 60° S 21:53:13 58° SE
Milstar 3 4.3 21:45:25 10° SW 21:55:23 61° SSE 22:15:17 10° E
GEOS 3 Rocket 3.6 21:58:23 53° S 21:59:27 68° WSW 22:04:33 10° NW
Lacrosse 5 rocket 3.2 21:58:14 10° WNW 22:01:12 20° WSW 22:01:24 20° SW
Cosmos 2074 Rocket 3.9 21:56:15 10° N 22:02:31 88° E 22:04:20 49° S
Nadezhda 1 Rocket 3.8 22:03:16 46° S 22:05:13 87° E 22:11:19 10° N
Cosmos 1656 3.7 22:03:13 10° NNW 22:08:42 72° WSW 22:09:41 58° SSW
Cosmos 1932 4.3 22:13:39 62° SSE 22:14:30 71° ESE 22:20:44 10° NNE
Cosmos 1850 Rocket 3.9 22:11:11 10° NNW 22:16:22 78° WSW 22:16:38 75° SW
Meteor 2-1 Rocket 4.2 22:12:12 10° N 22:17:41 63° E 22:17:41 63° E
Spot 2 Rocket 3.3 22:18:58 83° SSW 22:19:06 86° WSW 22:24:13 10° NNW
Cosmos 1980 Rocket 3.4 22:15:59 10° N 22:20:52 29° ENE 22:20:52 29° ENE
Cosmos 1295 Rocket 4.3 22:14:46 10° N 22:20:58 80° E 22:21:39 70° SE
Cosmos 1697 Rocket 2.7 22:15:38 10° NNW 22:21:12 63° ENE 22:21:16 63° ENE
ATLAS 2AS CENTAUR R/B 3.4 22:15:17 10° NW 22:21:34 41° WSW 22:23:22 34° SSW
COSMOS 2406 3.8 22:17:59 21° SW 22:21:42 55° WNW 22:27:21 10° N
ATLAS 5 CENTAUR R/B 3.9 22:29:23 12° NNE 22:29:23 12° NNE 22:29:44 10° NNE
SPOT 5 3.1 22:28:58 56° WNW 22:28:58 56° WNW 22:32:37 10° NNW
CZ-2C R/B 4.3 22:25:47 10° N 22:30:09 51° WNW 22:30:12 51° WNW
Cosmos 1610 Rocket 4.4 22:25:59 10° N 22:32:15 86° W 22:32:57 73° S
Cosmos 2154 Rocket 4.0 22:28:00 10° N 22:34:11 74° W 22:34:59 64° SW
Terra 2.1 22:35:21 63° NNW 22:35:21 63° NNW 22:39:20 10° NNW
Helios 1A Rocket 4.2 22:37:13 39° NW 22:37:13 39° NW 22:40:05 10° NNW
RESURS DK-1 3.8 22:34:28 10° NW 22:37:10 34° WNW 22:37:10 34° WNW
ERS-1 Rocket 3.4 22:42:32 55° W 22:42:32 55° W 22:47:07 10° NNW
Aurora 2 Rocket 4.1 22:34:20 10° WSW 22:43:00 55° SSW 22:43:00 55° SSW
ASTEX 1 4.3 22:42:25 10° NNE 22:45:50 43° NNE 22:45:50 43° NNE
SL-8 Rocket 4.3 22:47:40 10° N 22:53:01 53° NE 22:53:01 53° NE
Lacrosse 5 4.2 22:59:33 10° W 23:01:17 14° W 23:01:17 14° W
Cosmos 968 Rocket 4.3 23:02:49 10° NNW 23:06:36 49° NNW 23:06:36 49° NNW
ARIANE 5 R/B 4.4 23:13:15 29° NW 23:13:15 29° NW 23:15:45 10° NNW
Cosmos 2082 Rocket 3.9 23:09:07 21° WSW 23:11:38 28° WNW 23:16:30 10° N
Cosmos 2366 rocket 4.3 23:06:35 10° N 23:12:00 60° NE 23:12:00 60° NE
Cosmos 2218 Rocket 4.3 23:10:07 10° N 23:15:36 64° NNE 23:15:36 64° NNE
Cosmos 1867 4.5 23:13:12 10° NNW 23:17:08 45° N 23:17:08 45° N
USA 267 4.2 23:19:39 10° NNE 23:25:46 44° NW 23:31:52 10° WSW
